Voltar ao catálogo

STARLINK-37784

AtivoComunicaçõesSSO
NORAD 69657·PAYLOAD·🇺🇸 United States

Lançado Jun 21, 2026 de Vandenberg Space Force Base

Loading…

Próximas Passagens (próximas 24 horas)

TLE

AtualizadoSource: CelesTrak SupGP

Época: Sep 14, 2026, 23:18 UTC

1 69657C 26143J   26257.97131944  .00022543  00000+0  69981-3 0  2577
2 69657  97.2840 301.2958 0001013  99.9161  95.2491 15.33426788    11

Acompanhe STARLINK-37784 em tempo real com AllMySat

Download on the App Store